OSTRACH Weather Reports


Display with metric or nautical units.
time (UTC)temp
F
wind
direction
speed
MPH
gust
MPH
rain 1hr
in
rain 24hr
in
rain mn
in
humidity
%
barometer
mb
20260507153210 60 273 4.0 0.0 0.00 0.00 0.05 63 1012.4
20260507150210 61 270 10.0 0.0 0.00 0.00 0.05 63 1012.4
20260507143212 58 348 2.0 0.0 0.00 0.00 0.05 69 1012.4
20260507140210 59 9 11.0 0.0 0.00 0.00 0.05 68 1012.5
20260507133210 58 311 10.0 0.0 0.00 0.00 0.05 74 1012.8
20260507130210 58 240 8.0 0.0 0.00 0.00 0.05 76 1012.7
20260507123210 54 240 2.0 0.0 0.00 0.00 0.05 79 1012.7
20260507120211 56 232 8.0 0.0 0.00 0.00 0.05 74 1012.5
20260507113210 56 217 2.0 0.0 0.00 0.00 0.05 72 1012.5
20260507110210 54 216 8.0 0.0 0.00 0.00 0.05 77 1012.5
20260507103216 54 211 6.0 0.0 0.00 0.00 0.05 76 1012.5
20260507100212 54 207 5.0 0.0 0.00 0.00 0.05 77 1012.4
20260507093211 54 206 6.0 0.0 0.00 0.00 0.05 78 1012.3
20260507090211 53 209 5.0 0.0 0.00 0.00 0.05 79 1012.2
20260507083212 52 209 10.0 0.0 0.00 0.00 0.05 84 1012.0
20260507080211 51 207 9.0 0.0 0.00 0.00 0.05 86 1012.0
20260507073212 49 206 7.0 0.0 0.00 0.00 0.05 89 1011.7
20260507070212 49 207 9.0 0.0 0.00 0.00 0.05 90 1011.4
20260507063211 48 200 10.0 0.0 0.00 0.00 0.04 90 1011.3
20260507060211 47 213 6.0 0.0 0.00 0.00 0.03 91 1011.0
20260507053211 47 211 1.0 0.0 0.00 0.00 0.02 90 1010.7
20260507050213 47 210 8.0 0.0 0.00 0.00 0.01 89 1010.4
20260507043211 47 219 8.0 0.0 0.00 0.00 0.01 90 1010.1
20260507040216 47 207 8.0 0.0 0.00 0.00 0.01 89 1009.8
20260507033211 47 200 7.0 0.0 0.00 0.00 0.00 89 1009.7
20260507030211 47 202 9.0 0.0 0.00 0.00 0.00 88 1009.5
20260507023211 47 204 7.0 0.0 0.00 0.00 0.00 89 1009.4
20260507020211 46 205 8.0 0.0 0.00 0.00 0.00 89 1009.3
20260507013212 46 215 8.0 0.0 0.00 0.00 0.00 90 1009.2
20260507010211 46 215 5.0 0.0 0.00 0.00 0.00 90 1009.2
20260507003209 46 215 5.0 0.0 0.00 0.00 0.00 89 1008.9
20260507000209 46 215 6.0 0.0 0.00 0.00 0.00 90 1008.8
20260506233209 46 215 5.0 0.0 0.00 0.00 0.00 89 1008.8
20260506230209 46 215 4.0 0.0 0.00 0.00 0.00 89 1008.7
20260506223209 47 215 4.0 0.0 0.00 0.00 0.00 89 1008.6
20260506220209 47 215 2.0 0.0 0.00 0.00 0.28 89 1008.3
20260506213209 47 215 3.0 0.0 0.00 0.00 0.28 89 1008.3
20260506210210 47 216 6.0 0.0 0.00 0.00 0.28 88 1008.3
20260506203210 48 218 6.0 0.0 0.00 0.00 0.28 87 1008.1
20260506200210 49 209 7.0 0.0 0.00 0.00 0.28 87 1007.9
20260506193215 48 207 10.0 0.0 0.00 0.00 0.28 88 1007.6
20260506190211 48 216 10.0 0.0 0.00 0.00 0.28 87 1007.1
20260506183209 49 213 9.0 0.0 0.00 0.00 0.28 86 1006.8
20260506180216 50 214 13.0 0.0 0.00 0.00 0.28 83 1006.6
20260506173210 52 192 11.0 0.0 0.00 0.00 0.28 83 1006.4
20260506170215 51 221 5.0 0.0 0.00 0.00 0.28 88 1006.0
20260506163210 50 221 6.0 0.0 0.00 0.00 0.28 89 1005.8
20260506160210 49 221 10.0 0.0 0.00 0.00 0.28 89 1005.6